Wetbulb
66.81 69.30 72.66 72.59 72.09 72.14 72.04 72.57 72.71 73.29 73.93 73.05 72.38 72.27 72.14 72.71 72.48 72.46 72.36 72.33 72.47 72.59 72.51 72.55 72.56 72.53 72.61 72.53 72.79 73.14 73.23 73.65 73.37 73.54 73.35 73.70 74.38 74.04 73.13 73.72 73.89 73.21 74.25
68.29 69.76 72.38 72.66 72.61 72.54 72.42 73.07 73.33 73.56 73.82 73.48 72.61 72.46 72.21 72.29 72.46 72.42 72.67 72.46 71.99 72.13 72.44 72.30 72.58 72.68 72.83 72.83 73.24 73.00 73.13 73.42 73.17 72.50 72.02 71.47 72.77 73.60 73.31 73.60 73.71 73.17 73.90
68.39 69.88 70.31 71.84 72.40 72.84 73.46 73.18 73.36 73.36 73.72 73.45 72.74 72.34 72.00 71.97 72.13 72.11 72.37 72.43 72.13 71.73 71.83 71.98 71.97 72.65 73.41 73.13 73.02 72.85 72.79 73.08 72.89 72.10 71.68 70.68 70.92 73.26 73.26 73.54 73.61 73.94 73.95
68.50 69.54 69.82 71.72 70.96 72.25 72.71 73.01 73.25 73.28 72.91 72.77 72.32 71.85 71.44 70.81 71.33 72.10 72.17 72.07 72.12 71.86 72.15 72.31 72.01 72.34 72.34 73.25 73.04 72.55 72.37 72.95 72.18 71.28 70.31 70.78 70.71 73.32 73.43 73.48 73.58 73.76 73.75
67.73 69.12 69.68 70.23 71.30 72.25 71.98 72.90 73.16 72.54 72.19 72.12 71.74 71.13 71.05 70.88 70.95 71.25 71.59 71.66 71.98 72.03 72.16 72.12 72.02 72.12 72.03 72.66 72.99 72.38 72.51 72.17 71.21 70.41 69.04 69.46 69.74 72.18 73.65 73.53 73.34 73.22 73.07
67.07 68.41 69.39 70.21 71.23 70.79 71.88 72.11 72.14 71.93 71.63 71.13 70.89 70.59 70.36 70.90 70.77 70.26 70.21 69.66 70.31 71.14 71.03 70.90 70.77 71.56 71.91 72.07 72.74 72.27 71.79 70.99 69.44 68.94 69.18 70.96 70.15 72.88 73.46 73.11 72.83 72.78 72.79
65.69 67.90 68.58 70.08 69.74 70.89 72.12 71.65 71.61 71.33 71.05 70.65 70.19 69.75 69.90 70.46 70.55 70.22 69.25 69.02 69.13 69.19 70.46 70.40 70.44 70.93 70.91 71.08 71.90 71.62 70.94 69.39 68.37 68.28 68.59 69.11 69.62 72.88 73.08 72.60 72.22 72.07 72.50
65.12 67.44 68.02 68.85 69.38 70.09 70.22 70.88 70.64 70.40 70.39 70.17 69.80 69.55 69.71 70.33 70.22 70.23 70.17 69.29 67.93 68.59 69.87 70.64 70.62 70.11 70.18 70.56 71.25 70.78 68.68 67.90 68.07 68.22 68.35 68.34 71.14 71.99 72.10 71.72 70.80 70.69 71.44
65.72 66.50 66.60 66.97 67.65 67.83 68.39 68.90 69.08 69.44 69.87 70.03 69.99 69.73 69.68 69.73 69.92 69.95 69.84 69.10 67.91 68.88 69.36 70.34 69.35 68.84 69.39 69.70 69.16 67.98 67.50 66.91 67.62 68.16 68.52 68.24 70.80 72.05 72.00 71.57 70.86 70.75 70.94
64.54 64.72 65.85 66.01 66.11 64.93 65.18 67.33 67.85 68.36 68.50 68.83 68.09 67.73 66.57 66.19 66.35 67.35 67.89 68.79 69.33 68.13 69.57 69.36 68.93 69.19 69.36 68.37 67.60 67.15 66.27 66.58 66.58 67.25 67.67 68.71 70.98 71.72 71.40 70.93 70.76 70.49 70.28
63.08 63.04 63.26 64.22 64.70 64.92 65.15 65.30 65.87 66.75 66.64 66.61 66.23 65.04 64.36 63.88 63.55 63.32 64.84 66.68 68.33 68.73 68.98 68.17 68.66 68.12 66.72 66.16 66.64 66.33 65.82 66.12 66.27 66.70 68.00 69.26 70.81 70.96 70.36 69.75 69.36 69.19 68.80
61.07 62.37 63.12 63.26 63.53 63.82 65.24 63.45 65.62 64.49 64.26 64.15 64.20 62.80 64.27 62.72 60.98 61.83 61.46 65.67 67.44 67.40 67.89 68.38 67.94 65.91 64.10 63.46 64.21 64.94 64.76 64.76 65.10 65.70 66.93 68.50 69.49 69.64 69.02 68.24 67.86 67.63 67.31
61.45 61.78 62.66 63.49 63.67 63.15 63.30 63.39 64.12 64.04 63.63 62.75 63.36 62.92 62.46 60.86 60.82 60.41 58.65 59.56 64.02 64.23 65.47 66.20 63.61 62.29 62.06 63.17 63.65 63.63 63.69 63.55 63.73 64.02 65.42 67.08 67.94 68.12 67.59 66.91 66.47 66.12 65.73
60.30 61.94 62.58 62.74 62.78 62.51 62.86 62.97 62.16 62.02 60.74 60.58 61.31 60.86 59.64 58.36 57.73 57.71 56.66 56.47 58.53 61.35 60.84 61.04 61.07 61.34 62.25 63.12 62.54 61.84 61.67 61.56 61.46 61.75 62.50 64.31 65.88 66.29 66.22 65.77 65.26 64.64 63.99
59.87 61.29 61.97 62.99 63.10 62.62 62.77 62.24 61.56 61.15 59.79 58.31 60.31 58.21 56.64 56.21 54.79 55.54 56.11 56.48 56.93 59.60 59.75 60.15 61.01 61.46 61.87 61.40 60.85 60.01 59.24 58.97 59.29 59.54 60.21 61.73 63.10 63.23 63.92 63.99 63.74 63.11 62.54
60.70 60.63 61.53 62.14 63.08 62.68 61.75 60.89 60.43 59.87 58.76 58.77 59.05 57.82 55.03 53.91 54.76 54.40 54.38 54.95 56.22 58.18 58.59 58.95 59.85 59.62 59.91 60.34 59.11 58.65 58.11 57.77 57.89 57.70 58.42 60.18 61.44 61.36 61.82 62.21 62.18 61.89 61.71
61.09 60.58 60.60 61.19 62.44 61.89 60.74 59.95 60.41 59.33 58.69 56.17 54.17 52.28 54.08 52.30 51.05 53.60 53.03 53.57 54.35 56.04 56.82 57.17 57.04 57.98 57.19 58.74 58.01 57.87 56.92 56.04 55.34 54.93 55.15 55.56 57.34 59.70 60.76 60.98 61.00 60.64 60.56
44.16 54.51 60.44 60.85 61.27 60.91 60.17 58.39 57.30 57.72 57.58 54.15 52.41 51.01 50.92 50.92 49.43 50.09 52.24 52.46 53.83 55.59 55.81 55.74 55.71 55.34 54.48 54.30 54.55 55.41 55.33 54.97 54.10 53.61 53.66 53.76 53.04 53.33 58.38 59.55 59.15 59.11 59.35
39.27 40.62 48.71 59.88 59.99 59.97 59.91 57.46 57.87 57.46 56.64 54.23 52.59 50.74 48.45 48.38 48.68 49.51 50.26 52.08 53.55 54.14 54.46 54.11 53.45 52.73 49.44 47.37 47.27 49.14 51.26 50.66 49.93 49.93 48.95 51.08 51.81 50.75 51.68 56.04 57.70 57.53 57.60
35.31 36.50 38.02 42.04 58.73 59.69 59.00 57.79 57.81 57.47 57.42 56.08 53.30 49.90 47.55 47.10 47.47 48.96 50.02 51.53 53.42 53.55 53.26 51.98 48.75 47.61 45.83 44.06 43.49 42.83 44.91 46.14 46.21 44.98 44.12 47.21 47.95 48.55 48.50 49.29 48.71 53.31 56.41
31.95 32.99 34.70 36.92 40.61 49.80 57.42 56.36 55.68 55.52 55.67 55.83 54.93 49.87 47.85 45.89 47.74 49.00 50.20 51.45 52.83 52.79 51.89 49.51 46.54 43.78 42.33 43.27 41.08 39.62 39.83 41.70 42.58 41.95 41.03 40.64 42.47 43.07 44.53 46.96 47.69 47.72 49.40
29.52 30.63 32.39 34.35 36.90 40.10 50.97 56.71 56.16 55.63 54.15 53.15 52.95 51.58 49.56 46.24 47.17 49.20 50.03 51.00 51.86 51.57 50.87 48.15 46.25 43.68 43.43 45.43 42.43 40.40 36.74 37.74 38.38 39.77 39.40 39.40 38.09 39.20 39.93 40.20 43.73 43.91 43.31
27.33 28.62 30.55 32.61 34.87 37.86 43.03 53.88 55.32 54.69 52.81 49.26 50.20 49.47 47.95 45.32 46.62 48.63 49.68 50.47 51.45 51.75 49.44 48.18 46.55 45.35 44.97 44.89 45.72 44.86 40.95 38.45 34.45 37.13 36.85 37.63 37.37 36.47 36.62 38.19 39.90 42.30 42.02
25.28 27.83 29.30 31.44 33.19 37.00 38.44 42.72 54.32 52.60 50.66 48.67 49.05 48.30 47.41 45.61 44.11 47.27 48.94 49.74 50.58 50.89 49.01 48.28 48.52 48.71 46.84 44.72 38.54 40.52 40.65 39.65 33.75 29.37 34.47 35.66 36.97 37.03 36.47 37.31 37.48 39.09 39.28
24.43 25.12 27.05 29.21 31.61 33.25 35.02 37.78 54.24 52.64 51.95 49.24 47.97 46.60 45.62 44.51 43.29 43.10 45.78 48.36 48.86 49.24 48.88 48.59 48.00 47.95 48.26 44.10 37.88 37.83 38.06 38.08 37.67 33.08 28.89 31.29 34.72 35.81 36.05 35.83 35.73 36.19 38.62
23.07 23.48 24.68 25.98 28.68 31.07 32.47 34.92 45.23 52.59 51.21 48.63 47.31 45.30 43.99 43.31 41.89 41.51 42.29 43.52 46.09 47.70 47.75 48.07 47.81 46.46 44.08 42.87 38.84 38.42 38.73 36.77 36.30 35.52 31.68 30.59 30.89 33.24 34.95 35.90 35.77 36.28 37.06
MSLP
1004.98 1005.36 1005.83 1006.09 1006.51 1006.93 1007.35 1007.57 1007.90 1008.20 1008.51 1008.91 1009.23 1009.50 1009.80 1009.98 1010.22 1010.46 1010.73 1010.97 1011.18 1011.38 1011.44 1011.71 1011.84 1012.09 1012.26 1012.40 1012.50 1012.64 1012.90 1013.07 1013.32 1013.41 1013.57 1013.89 1014.13 1014.44 1014.78 1015.01 1015.20 1015.34 1015.54
1004.63 1005.26 1005.78 1006.12 1006.55 1006.95 1007.32 1007.56 1007.86 1008.19 1008.56 1008.88 1009.21 1009.45 1009.72 1009.96 1010.25 1010.53 1010.70 1010.97 1011.10 1011.38 1011.44 1011.74 1011.97 1012.13 1012.37 1012.52 1012.72 1012.98 1013.09 1013.31 1013.52 1013.79 1014.02 1014.32 1014.53 1014.67 1015.04 1015.18 1015.50 1015.67 1015.91
1004.70 1005.30 1005.88 1006.25 1006.60 1006.94 1007.29 1007.51 1007.77 1008.15 1008.54 1008.85 1009.14 1009.42 1009.63 1009.93 1010.19 1010.44 1010.63 1010.90 1011.09 1011.33 1011.43 1011.77 1012.04 1012.27 1012.49 1012.73 1013.09 1013.27 1013.33 1013.49 1013.83 1014.13 1014.40 1014.70 1014.88 1014.99 1015.27 1015.59 1015.74 1015.94 1016.08
1004.85 1005.36 1005.86 1006.32 1006.63 1007.02 1007.32 1007.58 1007.82 1008.17 1008.59 1008.93 1009.19 1009.45 1009.66 1009.93 1010.12 1010.35 1010.62 1010.88 1011.09 1011.33 1011.56 1011.83 1012.12 1012.47 1012.74 1012.95 1013.30 1013.49 1013.58 1013.71 1014.01 1014.24 1014.53 1014.85 1015.10 1015.26 1015.50 1015.86 1016.00 1016.22 1016.44
1004.91 1005.38 1005.84 1006.37 1006.70 1006.98 1007.38 1007.55 1007.85 1008.28 1008.58 1008.99 1009.24 1009.48 1009.64 1009.89 1010.10 1010.33 1010.60 1010.89 1011.16 1011.36 1011.66 1011.95 1012.16 1012.48 1013.10 1013.09 1013.41 1013.66 1013.83 1013.82 1014.03 1014.15 1014.49 1015.02 1015.38 1015.54 1015.72 1015.97 1016.30 1016.60 1016.95
1004.90 1005.28 1006.08 1006.55 1006.83 1007.01 1007.48 1007.67 1007.98 1008.37 1008.63 1009.08 1009.35 1009.58 1009.72 1009.82 1010.19 1010.40 1010.78 1011.04 1011.36 1011.50 1011.80 1012.05 1012.40 1012.66 1012.93 1013.39 1013.59 1013.72 1013.96 1014.13 1014.29 1014.29 1014.62 1015.04 1015.41 1015.53 1015.82 1016.31 1016.69 1017.01 1017.34
1004.85 1005.33 1006.07 1006.59 1006.85 1007.14 1007.35 1007.75 1008.13 1008.47 1008.69 1009.08 1009.31 1009.56 1009.77 1009.69 1010.15 1010.61 1010.94 1011.27 1011.53 1011.61 1011.73 1012.10 1012.46 1013.00 1013.18 1013.49 1013.88 1013.99 1014.22 1014.28 1014.46 1014.70 1014.92 1015.05 1015.39 1015.58 1015.92 1016.45 1017.06 1017.50 1017.82
1004.74 1005.40 1005.95 1006.47 1006.87 1007.10 1007.35 1007.78 1008.16 1008.46 1008.69 1009.05 1009.26 1009.53 1009.71 1009.66 1010.03 1010.57 1010.92 1011.31 1011.43 1011.50 1011.70 1011.87 1012.46 1012.92 1013.82 1013.59 1014.03 1014.39 1014.47 1014.59 1014.80 1014.94 1015.10 1015.31 1014.49 1015.14 1016.10 1016.78 1017.51 1017.98 1018.52
1004.61 1005.30 1006.05 1006.36 1006.73 1006.99 1007.28 1007.72 1008.06 1008.41 1008.69 1008.97 1009.30 1009.60 1009.65 1009.66 1009.89 1010.50 1010.89 1011.31 1011.58 1011.58 1011.62 1011.89 1012.74 1013.70 1014.15 1014.34 1014.65 1014.80 1014.83 1014.92 1015.13 1015.33 1015.60 1015.70 1015.73 1016.05 1016.29 1016.82 1016.82 1017.93 1018.70
1004.57 1005.21 1005.90 1006.30 1006.70 1006.91 1007.22 1007.70 1008.02 1008.44 1008.72 1008.99 1009.33 1009.65 1009.73 1009.75 1010.03 1010.50 1010.78 1011.10 1011.30 1011.50 1011.65 1011.88 1012.41 1013.28 1013.66 1014.83 1015.12 1015.14 1015.41 1015.51 1015.81 1015.97 1016.27 1016.31 1016.49 1016.61 1017.02 1017.83 1018.36 1018.96 1019.50
1004.73 1005.11 1005.52 1006.02 1006.45 1006.74 1007.06 1007.67 1007.99 1008.39 1008.85 1009.07 1009.48 1009.80 1009.78 1009.82 1010.17 1010.58 1010.63 1010.85 1011.09 1011.33 1011.57 1011.97 1012.56 1013.50 1013.93 1015.00 1015.33 1015.59 1015.94 1016.34 1016.46 1016.64 1016.85 1017.15 1017.26 1017.44 1018.06 1018.60 1019.16 1019.78 1020.27
1005.02 1005.24 1005.39 1005.71 1006.17 1006.48 1006.86 1007.49 1007.83 1008.45 1008.68 1008.91 1009.37 1009.76 1009.87 1010.20 1010.47 1010.76 1010.70 1010.50 1010.67 1011.06 1011.66 1012.11 1012.80 1013.81 1014.54 1015.71 1015.89 1016.16 1016.53 1016.70 1016.87 1017.41 1017.59 1017.79 1018.00 1018.29 1018.85 1019.39 1019.97 1020.47 1020.98
1005.32 1005.69 1005.74 1005.76 1006.07 1006.62 1007.20 1007.49 1007.98 1008.29 1008.50 1008.83 1009.33 1009.86 1010.01 1010.54 1010.82 1010.94 1010.94 1010.95 1011.08 1011.35 1011.92 1012.40 1013.08 1014.16 1014.90 1015.77 1016.16 1016.79 1017.12 1017.38 1017.86 1018.29 1018.50 1018.41 1018.78 1018.99 1019.66 1020.21 1020.76 1021.24 1021.73
1005.62 1005.85 1006.11 1006.30 1006.28 1006.67 1007.15 1007.69 1008.00 1008.31 1008.73 1009.27 1009.59 1010.02 1010.39 1010.93 1011.32 1011.37 1011.42 1011.44 1011.60 1011.73 1012.37 1012.59 1013.45 1014.50 1015.28 1016.11 1016.71 1017.42 1017.61 1018.18 1018.54 1019.27 1019.58 1019.33 1019.61 1019.87 1020.38 1020.95 1021.39 1021.84 1022.34
1005.78 1005.93 1006.36 1006.41 1006.58 1006.83 1007.28 1007.71 1008.14 1008.62 1009.03 1009.45 1009.95 1010.28 1010.92 1011.15 1011.67 1011.78 1011.94 1011.84 1011.92 1012.03 1012.65 1013.43 1014.34 1015.02 1015.59 1016.58 1017.40 1017.86 1018.20 1018.66 1019.16 1019.96 1020.60 1020.61 1020.74 1020.88 1021.16 1021.53 1021.99 1022.47 1022.91
1005.59 1005.89 1006.35 1006.48 1006.53 1006.80 1007.34 1007.68 1008.07 1008.76 1009.19 1009.71 1009.94 1010.41 1011.02 1011.30 1011.67 1012.14 1012.39 1012.62 1012.77 1012.72 1013.31 1014.03 1014.81 1015.26 1016.20 1016.96 1017.66 1018.15 1018.62 1019.30 1020.10 1020.18 1020.86 1021.38 1021.39 1021.79 1021.95 1022.29 1022.73 1023.04 1023.41
1005.53 1005.81 1006.38 1006.60 1006.66 1006.76 1007.36 1007.70 1008.17 1008.94 1009.20 1010.12 1010.30 1010.49 1011.04 1011.36 1011.77 1012.18 1012.64 1012.94 1013.29 1013.43 1013.77 1014.45 1015.55 1016.01 1016.92 1017.34 1018.29 1018.68 1019.47 1020.08 1020.48 1021.01 1021.77 1022.01 1022.02 1022.30 1022.69 1023.02 1023.45 1023.62 1023.97
1008.42 1007.47 1005.99 1006.67 1006.92 1006.93 1007.48 1008.09 1008.44 1008.93 1009.46 1010.11 1010.54 1010.79 1011.24 1011.54 1012.06 1012.44 1013.10 1013.35 1013.76 1014.08 1014.25 1015.07 1016.16 1016.81 1017.75 1018.35 1018.78 1019.23 1019.72 1020.54 1021.34 1021.97 1022.22 1022.56 1023.20 1023.50 1023.50 1023.72 1024.08 1024.24 1024.48
1010.73 1010.01 1008.59 1006.84 1007.20 1007.19 1007.68 1008.25 1008.88 1009.19 1009.57 1010.03 1010.40 1010.84 1011.48 1011.84 1012.34 1012.69 1013.41 1013.90 1014.10 1014.55 1015.07 1015.60 1016.72 1017.35 1018.53 1019.41 1019.98 1020.46 1020.68 1021.09 1021.85 1022.53 1023.10 1023.54 1024.01 1024.37 1024.68 1024.72 1024.83 1024.98 1025.13
1012.20 1011.56 1010.86 1009.79 1007.86 1007.60 1007.83 1008.32 1008.80 1009.11 1009.42 1009.61 1010.21 1010.75 1011.32 1011.93 1012.49 1012.97 1013.56 1013.93 1014.12 1014.78 1015.65 1016.34 1016.96 1018.36 1019.09 1020.04 1021.00 1021.33 1021.96 1022.41 1023.21 1023.81 1024.37 1024.74 1024.96 1025.17 1025.49 1025.62 1025.89 1025.68 1025.74
1013.32 1012.43 1012.11 1011.53 1010.45 1009.33 1007.57 1008.27 1008.62 1008.89 1009.27 1009.34 1009.91 1010.51 1011.11 1011.78 1012.47 1013.16 1013.66 1014.12 1014.38 1014.92 1015.64 1016.62 1017.83 1018.52 1020.21 1020.52 1020.83 1022.85 1023.57 1023.96 1024.56 1025.06 1025.33 1025.73 1025.96 1026.01 1026.18 1026.36 1026.66 1026.71 1026.81
1014.72 1014.37 1013.23 1012.54 1011.94 1010.99 1009.32 1007.67 1008.13 1008.76 1009.00 1009.16 1009.63 1010.39 1010.99 1011.56 1012.32 1012.97 1013.54 1014.09 1014.49 1014.98 1015.78 1016.80 1017.59 1019.25 1020.36 1020.35 1021.37 1022.55 1024.36 1025.70 1025.92 1026.13 1026.26 1026.32 1026.59 1026.72 1026.93 1027.00 1027.27 1027.52 1027.73
1016.32 1015.74 1014.97 1013.92 1012.89 1011.68 1010.46 1008.57 1007.89 1008.41 1009.23 1009.51 1009.88 1010.28 1010.84 1011.52 1012.09 1012.76 1013.43 1013.99 1014.50 1014.93 1015.73 1016.69 1017.72 1018.50 1019.60 1020.52 1020.59 1020.98 1023.13 1024.76 1026.20 1026.87 1026.81 1026.84 1027.14 1027.45 1027.62 1027.58 1027.72 1027.94 1028.28
1018.15 1017.10 1015.89 1014.85 1013.52 1012.16 1011.14 1010.03 1007.79 1008.09 1008.85 1009.33 1009.75 1010.23 1010.77 1011.20 1011.94 1012.57 1013.17 1013.74 1014.38 1015.12 1015.85 1016.59 1017.52 1018.11 1018.59 1019.70 1020.76 1020.52 1020.80 1022.10 1024.71 1027.22 1027.39 1027.30 1027.49 1027.80 1027.89 1027.90 1028.21 1028.48 1028.61
1019.51 1018.22 1017.20 1015.99 1014.46 1013.15 1011.82 1010.68 1008.50 1007.58 1008.31 1009.05 1009.83 1010.32 1010.84 1011.34 1011.72 1012.47 1013.05 1013.52 1014.33 1015.02 1015.66 1016.31 1017.16 1017.71 1017.90 1018.83 1019.77 1020.68 1021.28 1021.90 1023.03 1024.77 1026.96 1027.61 1027.78 1027.97 1027.99 1028.21 1028.56 1028.90 1029.14
1020.35 1019.10 1017.97 1016.77 1015.54 1014.35 1012.87 1010.85 1009.39 1007.86 1007.79 1008.73 1009.58 1010.26 1010.79 1011.29 1011.85 1012.37 1012.92 1013.59 1014.10 1014.82 1015.51 1015.96 1016.70 1017.16 1017.71 1018.35 1019.20 1019.86 1020.51 1021.28 1022.20 1023.15 1025.36 1027.21 1027.70 1028.21 1028.39 1028.43 1028.81 1029.00 1029.17
Wind_Speed
6 13 16 16 16 14 14 12 11 10 9 10 8 7 6 7 8 8 7 6 7 8 9 10 11 10 9 9 10 11 11 10 12 14 14 15 16 19 19 14 17 14 18
11 13 16 15 15 14 13 11 9 9 8 10 9 8 7 7 7 7 7 7 7 8 9 10 12 12 11 11 11 10 12 13 13 13 13 11 14 17 17 17 16 16 19
11 13 11 15 14 11 12 10 9 6 10 9 9 9 8 7 7 8 8 8 8 9 9 10 12 13 12 13 11 11 12 14 13 13 12 6 7 15 19 18 18 20 22
10 12 11 14 15 12 9 9 7 10 9 8 7 8 7 6 7 8 8 7 8 9 9 9 10 10 12 12 11 12 14 15 15 15 7 8 9 17 20 20 20 22 22
9 11 12 16 15 13 10 8 10 10 9 8 8 7 7 7 6 6 7 6 6 7 7 10 13 13 13 12 13 13 14 14 12 9 8 7 6 15 21 21 21 22 22
8 10 15 15 14 14 11 10 11 10 9 8 6 6 6 8 6 6 7 4 4 3 7 10 13 14 15 13 14 14 13 9 4 7 7 10 8 18 21 21 20 22 23
8 11 12 15 14 12 11 12 10 9 9 8 7 6 7 7 7 8 7 5 5 4 7 10 15 13 15 16 15 13 10 8 6 6 6 6 9 20 21 22 23 24 23
8 14 12 13 14 12 9 10 11 7 7 8 6 7 7 6 7 9 8 9 7 6 7 12 16 16 12 13 13 10 7 8 6 6 6 5 18 23 23 25 24 22 22
9 11 11 12 12 14 11 9 8 7 5 7 6 5 5 3 5 7 8 9 9 8 8 12 18 15 16 10 6 8 7 8 8 6 6 5 18 24 25 25 27 25 22
8 7 11 10 8 6 7 9 7 6 4 7 5 7 10 9 5 5 6 8 10 10 14 18 20 22 20 13 8 10 7 10 7 7 6 8 22 27 28 28 28 28 26
5 7 7 10 10 9 9 7 8 9 11 9 8 10 8 4 5 3 5 8 10 13 24 23 23 20 22 16 13 18 11 6 7 7 7 21 25 29 28 28 27 27 26
6 5 4 7 8 7 8 7 8 7 6 5 6 6 6 6 5 4 5 9 14 18 22 26 26 24 16 6 7 13 7 10 9 7 8 24 28 29 28 27 26 25 25
4 3 1 4 4 8 6 4 3 3 3 3 8 6 8 5 4 4 3 3 4 8 8 16 16 10 12 6 9 7 10 9 8 8 12 23 26 28 26 26 24 24 22
4 6 3 5 6 8 5 5 4 3 4 4 5 7 6 4 4 4 4 5 4 8 11 11 9 11 12 11 12 10 12 9 9 8 11 21 23 25 25 24 23 22 20
8 6 5 6 6 5 7 5 5 5 5 4 4 6 5 5 4 5 4 6 5 9 10 10 11 11 12 13 12 12 14 13 14 9 7 18 22 22 22 22 22 21 21
9 9 6 5 5 7 4 7 5 5 7 4 4 7 8 5 6 6 6 6 6 9 10 9 9 10 10 12 13 13 14 13 11 14 9 10 20 21 20 21 21 21 21
7 12 10 7 4 9 6 4 7 7 7 5 4 6 9 7 7 7 6 7 6 8 14 13 8 11 10 9 13 13 12 13 11 12 10 8 10 16 18 20 20 20 20
22 15 11 8 4 9 8 5 3 6 6 5 4 5 8 9 8 8 7 7 7 7 11 11 9 11 9 9 8 9 10 11 13 10 10 9 9 7 13 17 18 18 18
20 20 19 6 5 6 10 6 6 7 7 6 6 6 8 9 9 8 7 7 10 8 9 11 9 10 11 10 10 9 10 10 11 10 11 10 10 9 7 17 14 16 16
20 18 19 17 9 4 8 5 5 6 6 8 7 7 10 9 10 9 8 9 9 10 10 9 14 10 10 11 12 12 10 10 8 8 8 8 7 7 6 8 6 7 15
22 23 20 19 19 15 8 7 6 7 5 6 8 12 11 10 12 10 9 10 10 11 13 14 13 16 9 10 11 11 10 9 9 7 6 5 6 5 7 6 5 5 7
22 23 22 20 18 15 11 8 5 5 3 3 6 10 11 12 12 11 11 10 11 11 14 15 14 10 7 7 8 9 5 4 6 5 4 5 6 5 5 6 6 7 6
24 23 21 21 19 16 15 8 5 7 3 3 5 4 8 13 12 12 12 10 11 11 11 13 13 15 11 3 9 5 5 4 4 3 4 4 5 4 4 5 6 7 6
22 21 21 19 20 16 16 16 13 11 10 4 5 5 8 11 11 13 13 12 12 10 13 12 10 10 9 12 2 3 4 7 5 4 2 2 4 5 5 3 5 5 5
20 20 19 20 20 20 18 17 11 13 9 6 4 9 7 7 8 9 11 13 12 9 12 15 14 11 10 9 5 4 4 4 6 5 4 3 3 3 3 4 4 4 4
20 20 20 22 20 20 19 19 15 13 14 11 9 8 7 7 6 8 8 8 9 10 11 11 10 12 7 9 6 6 7 5 4 5 5 4 4 2 3 4 4 4 4
Wind_Direction
131 143 157 158 159 163 168 168 166 170 176 166 171 172 168 164 164 164 164 165 168 171 172 169 164 153 147 134 123 117 116 112 113 106 107 119 122 124 128 132 107 108 108
127 146 160 160 163 165 169 165 168 171 177 168 176 183 177 182 181 181 176 176 177 187 182 176 173 157 150 142 129 129 123 112 105 104 106 119 130 130 126 114 109 112 109
125 144 161 163 165 161 163 163 164 199 164 170 184 182 185 183 190 188 184 187 189 193 187 179 180 164 154 138 137 134 132 122 118 120 119 117 117 130 124 112 116 113 108
132 145 158 161 168 167 155 166 174 157 161 175 167 175 175 190 194 189 188 197 194 188 181 176 172 165 151 139 141 144 137 133 140 148 130 125 128 128 125 122 121 115 109
135 150 150 166 169 164 143 154 158 153 154 171 174 180 182 181 185 179 183 189 194 184 175 175 167 163 162 152 147 149 148 149 157 163 117 122 123 135 132 128 119 113 109
145 153 139 169 170 168 147 136 144 152 155 171 183 195 201 188 190 173 142 120 74 143 173 181 176 172 159 158 150 156 158 142 159 106 104 128 139 146 135 127 121 115 110
157 120 147 170 173 172 155 144 147 156 159 172 187 198 209 197 190 176 168 136 156 142 170 184 172 179 161 162 156 156 138 144 116 101 119 143 154 143 135 127 119 112 105
155 138 151 170 173 174 168 145 136 138 161 181 194 209 218 197 191 200 179 170 154 172 192 180 173 149 153 164 154 137 126 132 98 95 111 107 140 121 111 111 103 98 105
148 136 147 172 174 173 176 174 165 162 193 180 192 206 223 207 191 225 188 184 176 161 187 161 144 164 162 153 133 121 119 118 85 84 85 94 113 110 111 104 118 114 115
136 150 155 166 172 171 166 165 143 148 152 128 140 127 120 118 134 185 215 212 188 178 128 133 142 153 131 106 130 105 101 99 87 92 81 107 109 101 98 99 99 99 97
143 165 168 165 171 176 162 162 151 136 125 128 130 143 142 115 77 7 238 218 179 174 139 135 127 113 91 89 70 79 83 74 90 90 94 109 105 100 97 95 93 93 93
179 172 192 172 169 155 131 154 135 137 157 151 143 177 94 79 68 19 277 187 174 158 156 149 129 111 94 92 87 76 84 82 74 82 107 104 102 97 95 95 94 93 93
186 147 245 150 176 110 119 114 124 163 112 97 100 90 82 67 47 39 43 55 96 152 168 154 118 110 107 105 94 87 92 81 85 78 85 97 101 100 97 95 94 94 92
197 156 165 257 121 117 122 131 129 123 104 84 96 96 90 81 51 59 67 74 75 105 111 104 111 114 110 103 100 95 95 96 92 84 69 83 92 97 98 99 97 94 93
183 159 184 245 153 139 139 142 143 120 106 110 102 100 107 101 90 84 71 85 80 101 99 103 118 118 108 106 104 105 99 93 93 96 88 86 87 90 97 98 97 97 99
178 162 178 242 221 146 161 139 131 105 121 126 128 128 117 108 110 101 95 95 100 107 98 95 104 102 100 112 104 101 94 94 97 96 90 96 99 102 95 98 104 105 105
190 160 174 219 246 149 129 116 139 131 122 125 104 86 123 108 100 110 98 91 90 100 109 96 83 97 94 99 107 101 101 95 91 93 94 79 78 87 101 106 104 108 105
9 335 161 194 261 142 142 112 104 128 135 128 127 113 110 118 114 105 108 102 99 112 108 107 110 101 91 87 90 97 96 102 97 86 85 78 62 53 86 100 101 104 107
6 358 350 181 238 149 142 143 153 144 140 143 134 128 126 122 123 121 123 125 125 116 112 114 102 104 96 85 70 66 82 75 70 68 59 74 76 66 63 72 85 99 100
2 5 1 348 291 182 143 154 147 145 157 149 142 138 137 132 126 127 129 132 131 126 122 109 108 91 96 95 84 65 57 67 64 66 64 71 76 75 68 69 47 82 98
5 2 2 346 338 335 158 165 153 166 170 155 148 144 141 137 136 138 135 134 136 136 130 122 116 113 104 115 98 72 59 53 65 65 61 60 58 66 68 74 67 58 54
2 356 353 349 340 333 317 166 157 159 153 138 129 150 148 143 141 143 144 142 136 131 125 129 132 129 118 150 127 117 99 43 35 52 71 79 72 61 62 65 84 78 71
359 355 348 342 336 328 325 287 147 138 127 106 142 141 144 145 149 146 148 148 145 136 133 134 140 142 152 162 163 136 135 148 138 13 57 93 99 86 75 75 74 88 96
353 348 347 344 340 335 331 323 180 166 169 166 155 142 147 147 150 156 154 154 151 147 148 149 152 161 149 147 110 44 93 132 142 136 349 86 124 124 123 97 85 96 92
355 352 348 348 343 342 337 335 233 170 169 146 148 146 146 148 141 148 159 159 156 156 160 159 164 168 167 156 145 138 83 92 121 134 144 178 86 121 119 114 114 96 105
357 357 353 352 349 347 340 338 319 186 163 159 158 161 157 151 149 149 151 148 153 155 164 162 158 159 150 137 132 139 151 151 163 142 122 135 131 111 103 109 124 123 122